Regional Weather Roundup
Issued by NWS

Home | Current Version | Previous Version | Text Only | Print | Product List | Glossary Off
Versions: 1 2 3 4 5 6 7 8 9 10 11 12 13 14 15 16 17 18 19 20 21 22 23 24 25 26 27 28 29 30 31 32 33 34 35 36 37 38 39 40 41 42 43 44 45 46 47 48 49 50

000
ASUS43 KLMK 241410
RWRKY
KENTUCKY REGIONAL WEATHER ROUNDUP
NATIONAL WEATHER SERVICE LOUISVILLE KY
1000 AM EDT SUN JUL 24 2016

NOTE "FAIR" INDICATES FEW OR NO CLOUDS BELOW 12,000 FEET
WITH NO SIGNIFICANT WEATHER AND/OR OBSTRUCTIONS TO VISIBILITY.

KYZ001>023-026-027-061>063-070>075-241500-
WESTERN AND SOUTH CENTRAL KENTUCKY

CITY           SKY/WX    TMP DP  RH WIND       PRES   REMARKS
PADUCAH        SUNNY     84  75  74 SW6       29.99R HX  92
HENDERSON      SUNNY     82  75  78 S5        29.98S
OWENSBORO      SUNNY     84  78  82 S9        30.01R HX  94
HOPKINSVILLE   SUNNY     83  76  80 S5        30.02R HX  91
BOWLING GREEN  SUNNY     82  73  74 SW5       30.03S
GLASGOW        SUNNY     80  73  79 SW5       30.04S
$$

KYZ024-025-028>034-038-045-046-053-241500-
NORTH CENTRAL KENTUCKY

CITY           SKY/WX    TMP DP  RH WIND       PRES   REMARKS
LOUISVILLE/SDF PTSUNNY   85  74  69 CALM      30.01R HX  92
LOUISVILLE/LOU SUNNY     84  75  74 VRB3      30.02R HX  92
FORT KNOX      SUNNY     82  76  79 VRB3      30.01S HX  90
$$

KYZ035>037-039>044-047>052-055>060-089>105-241500-
NORTHEAST KENTUCKY

CITY           SKY/WX    TMP DP  RH WIND       PRES   REMARKS
LEXINGTON      SUNNY     83  74  74 SW3       30.05R
COVINGTON      PTSUNNY   85  75  72 SW6       30.03R HX  93
FRANKFORT      SUNNY     83  74  74 CALM      30.03R
$$

KYZ054-064>069-076>088-106>120-241500-
SOUTHEAST KENTUCKY

CITY           SKY/WX    TMP DP  RH WIND       PRES   REMARKS
JACKSON        CLOUDY    78  72  81 CALM      30.07S
LONDON         SUNNY     81  70  69 S7        30.07S
SOMERSET       SUNNY     79  70  73 CALM      30.08S
MIDDLESBORO    SUNNY     79  73  81 E3        30.09S
MONTICELLO     SUNNY    N/A N/A N/A NW9       30.08S
$$





USA.gov is the U.S. government's official web portal to all federal, state and local government web resources and services.